Buffalo, NY

10:08 AM EDT on September 19, 2017 (GMT -0400)
Buffalo Niagara International

Weather History for KBUF - December, 2012

Change the Weather History Date:

Monday, December 3, 2012

  Actual Average Record
Temperature  
Mean Temperature 51 °F 34 °F  
Max Temperature 59 °F 40 °F 74 °F (1982)
Min Temperature 43 °F 28 °F -3 °F (1976)
Degree Days  
Heating Degree Days 14 31  
Month to date heating degree days 54 91  
Since 1 July heating degree days 1333 1424  
Cooling Degree Days 0 0  
Month to date cooling degree days 0 0  
Year to date cooling degree days 875 544  
Moisture  
Dew Point 44 °F    
Average Humidity 81    
Maximum Humidity 89    
Minimum Humidity 72    
Precipitation  
Precipitation T in 0.13 in 1.20 in (1990)
Month to date precipitation 0.35 0.38  
Year to date precipitation 29.51 36.97  
Snow  
Snow 0.00 in 0.60 in 5.50 in (1906)
Month to date snowfall 0.0 1.8  
Since 1 July snowfall 2.4 10.6  
Snow Depth 0.00 in    
Sea Level Pressure  
Sea Level Pressure 30.16 in    
Wind  
Wind Speed 4 mph (SSE)    
Max Wind Speed 14 mph    
Max Gust Speed 17 mph    
Visibility 8 miles    
Events      
T = Trace of Precipitation, MM = Missing Value Source: NWS Daily Summary

Daily Weather History Graph

Daily Weather History Graph

Search for Another Location

Airport or City:

Trip Planner

Search our weather history database for the weather conditions in past years. The results will help you decide how hot, cold, wet, or windy it might be!

Date:

Astronomy

Dec. 03, 2012 Rise Set
Actual Time 7:28 AM EST 4:40 PM EST
Civil Twilight 6:57 AM EST 5:12 PM EST
Nautical Twilight 6:21 AM EST 5:48 PM EST
Astronomical Twilight 5:47 AM EST 6:22 PM EST
Moon 9:29 PM EST (12/3) 10:47 AM EST (12/3)
Length of Visible Light 10h 15m
Length of Day
9h 12m
Waning Gibbous, 78% of the Moon is Illuminated
Dec 3
Waning Gibbous
Dec 6
Last Quarter
Dec 13
New
Dec 20
First Quarter
Dec 28
Full

Hourly Weather History & Observations

Time (EST) Temp. Windchill Dew Point Humidity Pressure Visibility Wind Dir Wind Speed Gust Speed Precip Events Conditions
12:38 AM 46.4 °F 44.3 °F 42.8 °F 87% 30.11 in 8.0 mi WNW 4.6 mph - N/A   Mostly Cloudy
12:54 AM 46.0 °F 43.9 °F 42.1 °F 86% 30.13 in 8.0 mi WNW 4.6 mph - N/A   Mostly Cloudy
1:54 AM 45.0 °F 42.6 °F 39.9 °F 82% 30.14 in 9.0 mi WNW 4.6 mph - N/A   Mostly Cloudy
2:54 AM 45.0 °F 42.6 °F 39.0 °F 80% 30.17 in 10.0 mi WNW 4.6 mph - N/A   Mostly Cloudy
3:54 AM 43.0 °F - 39.0 °F 86% 30.17 in 10.0 mi Calm Calm - N/A   Mostly Cloudy
4:54 AM 44.1 °F 42.5 °F 39.9 °F 85% 30.20 in 9.0 mi West 3.5 mph - N/A   Overcast
5:54 AM 44.1 °F - 39.9 °F 85% 30.20 in 8.0 mi Calm Calm - N/A   Overcast
6:54 AM 44.1 °F - 39.9 °F 85% 30.22 in 8.0 mi Calm Calm - N/A   Overcast
7:54 AM 43.0 °F 41.3 °F 39.9 °F 89% 30.22 in 7.0 mi South 3.5 mph - N/A   Mostly Cloudy
8:41 AM 44.6 °F - 39.2 °F 81% 30.21 in 6.0 mi Calm Calm - N/A   Mostly Cloudy
8:54 AM 44.1 °F - 39.9 °F 85% 30.23 in 7.0 mi Calm Calm - N/A   Mostly Cloudy
9:42 AM 44.6 °F 43.1 °F 39.2 °F 81% 30.22 in 7.0 mi SSE 3.5 mph - N/A   Mostly Cloudy
9:49 AM 44.6 °F 43.1 °F 39.2 °F 81% 30.22 in 7.0 mi SE 3.5 mph - N/A   Mostly Cloudy
9:54 AM 46.0 °F 43.9 °F 39.9 °F 79% 30.24 in 7.0 mi SSE 4.6 mph - N/A   Mostly Cloudy
10:54 AM 48.0 °F - 42.1 °F 80% 30.22 in 8.0 mi South 6.9 mph - N/A   Scattered Clouds
11:09 AM 48.2 °F - 42.8 °F 82% 30.21 in 7.0 mi South 5.8 mph - N/A   Mostly Cloudy
11:39 AM 48.2 °F - 44.6 °F 87% 30.19 in 6.0 mi Variable 4.6 mph - N/A   Mostly Cloudy
11:47 AM 48.2 °F - 44.6 °F 87% 30.18 in 6.0 mi ESE 4.6 mph - N/A   Mostly Cloudy
11:54 AM 48.9 °F - 44.1 °F 83% 30.19 in 6.0 mi Variable 4.6 mph - N/A   Haze
12:54 PM 52.0 °F - 46.0 °F 80% 30.16 in 8.0 mi East 3.5 mph - N/A   Partly Cloudy
1:54 PM 55.0 °F - 46.0 °F 72% 30.14 in 8.0 mi East 4.6 mph - N/A   Scattered Clouds
2:54 PM 55.9 °F - 46.0 °F 69% 30.14 in 9.0 mi Calm Calm - N/A   Partly Cloudy
3:54 PM 54.0 °F - 46.0 °F 75% 30.14 in 9.0 mi ENE 3.5 mph - N/A   Scattered Clouds
4:54 PM 54.0 °F - 46.0 °F 75% 30.14 in 10.0 mi NE 3.5 mph - N/A   Mostly Cloudy
5:54 PM 53.1 °F - 46.0 °F 77% 30.14 in 9.0 mi NE 3.5 mph - N/A   Overcast
6:54 PM 51.1 °F - 46.0 °F 83% 30.12 in 8.0 mi East 4.6 mph - N/A   Mostly Cloudy
7:54 PM 53.1 °F - 48.0 °F 83% 30.11 in 10.0 mi SE 5.8 mph - N/A   Mostly Cloudy
8:54 PM 53.1 °F - 48.0 °F 83% 30.10 in 9.0 mi SE 5.8 mph - N/A   Overcast
9:17 PM 53.6 °F - 48.2 °F 82% 30.09 in 9.0 mi SSE 5.8 mph - N/A   Overcast
9:54 PM 55.0 °F - 50.0 °F 83% 30.09 in 9.0 mi South 6.9 mph - N/A   Overcast
10:33 PM 55.4 °F - 51.8 °F 88% 30.06 in 8.0 mi South 5.8 mph - N/A   Overcast
10:54 PM 55.9 °F - 52.0 °F 87% 30.06 in 8.0 mi South 6.9 mph - N/A   Overcast
11:25 PM 57.2 °F - 53.6 °F 88% 30.05 in 8.0 mi South 11.5 mph - N/A   Overcast
11:54 PM 59.0 °F - 54.0 °F 83% 30.06 in 9.0 mi SSW 10.4 mph - N/A   Overcast